Location: Cheyres
(46.8153°N, 6.7877°E)
Time: 11:51:46
(UTC+00:00)

Courier 1B - Visible Passes

Search period start: 28 May 2022 00:00
Search period end: 07 June 2022 00:00
Orbit: 962 x 1209 km, 28.3° (Epoch: 27 May)

Date Brightness Start Highest point End Pass type
(mag) Time Alt. Az. Time Alt. Az. Time Alt. Az.
28 May 9.4 20:55:56 10° SW 20:58:50 13° SSW 21:00:42 11° S visible
29 May 9.4 20:01:31 10° SW 20:05:21 15° SSW 20:09:04 10° SSE visible
31 May 9.6 20:08:32 10° SW 20:11:03 12° SSW 20:13:31 10° S visible
